Weather in Kerchomya

Russia / Komi Republic     61°28′33″N   53°54′41″E
temp.,
°C
wind,
m/s
gust,
m/s
humid.,
%
clouds,
%
prec.,
mm/h
press.,
hPa
HPBL,
m
12 may, wed
wed1200:00+11sw257496 0.0 1028119
03:00+11wsw297859 0.0 1029229
06:00+14wsw3967100 0.0 1028339
09:00+19wsw4751100 0.0 1028914
12:00+22w584274 0.0 10271566
15:00+23w5741100 0.0 10261699
18:00+21w3850100 0.0 1025446
21:00+15wsw29735 0.0 1026163
13 may, thu
thu1300:00+13w298050 0.0 1026161
03:00+12w268433 0.0 1027103
06:00+17w24649 0.0 1027249
09:00+23wsw23455 0.0 10261062
12:00+26wsw353446 0.0 10251907
15:00+26sw352861 0.0 10232220
18:00+23sw25410 0.0 1022118
21:00+17wsw22565 0.0 102216
14 may, fri
fri1400:00+17sw2356100 0.0 102257
03:00+15sw287137 0.1 1021145
06:00+19wsw395894 0.0 1020306
09:00+24sw4741100 0.0 10191299
12:00+25ssw5935100 0.0 10172553
15:00+25wsw594099 0.0 10162575
18:00+23w411520 0.1 10151523
21:00+17wsw277487 0.2 1016139
15 may, sat
sat1500:00+15wsw2879100 0.0 1017195
03:00+14sw28845 0.0 1017153
06:00+18wsw376324 0.0 1017397
09:00+22wsw364582 0.0 10161482
12:00+25wsw483499 0.0 10152590
15:00+23nw474395 0.0 10141094
18:00+21se126075 0.3 1013315
21:00+16ese2591100 2.5 1012138
16 may, sun
sun1600:00+15s1295100 3.5 101155
03:00+15ssw2794100 3.6 1011176
06:00+18sw3107682 0.0 1011623
09:00+23wsw595273 0.0 10101269
12:00+27sw6123747 0.0 10082534
15:00+26wsw8174595 0.9 10062989
18:00+23wsw5114986 1.4 1007961
21:00+17sw3108158 3.1 1008227